TimeEDT,TemperatureF,Dew PointF,Humidity,Sea Level PressureIn,VisibilityMPH,Wind Direction,Wind SpeedMPH,Gust SpeedMPH,PrecipitationIn,Events,Conditions,WindDirDegrees,DateUTC
12:53 AM,60.1,55.0,83,30.05,10.0,Calm,Calm,-,N/A,,Clear,0,2013-10-16 04:53:00
1:53 AM,57.9,55.0,90,30.04,10.0,Calm,Calm,-,N/A,,Clear,0,2013-10-16 05:53:00
2:53 AM,57.0,54.0,89,30.03,10.0,Calm,Calm,-,N/A,,Clear,0,2013-10-16 06:53:00
3:53 AM,57.0,54.0,89,30.01,10.0,Calm,Calm,-,N/A,,Clear,0,2013-10-16 07:53:00
4:53 AM,55.9,54.0,93,30.01,10.0,Calm,Calm,-,N/A,,Clear,0,2013-10-16 08:53:00
5:53 AM,55.9,53.1,90,30.02,9.0,Calm,Calm,-,N/A,,Clear,0,2013-10-16 09:53:00
6:53 AM,55.9,54.0,93,30.03,10.0,Calm,Calm,-,N/A,,Clear,0,2013-10-16 10:53:00
7:53 AM,55.0,53.1,93,30.04,9.0,Calm,Calm,-,N/A,,Clear,0,2013-10-16 11:53:00
8:53 AM,62.1,57.0,84,30.04,10.0,Calm,Calm,-,N/A,,Clear,0,2013-10-16 12:53:00
9:42 AM,66.2,60.8,83,30.07,10.0,NE,8.1,-,N/A,,Mostly Cloudy,40,2013-10-16 13:42:00
9:53 AM,66.9,60.1,79,30.06,10.0,ENE,6.9,-,N/A,,Overcast,60,2013-10-16 13:53:00
10:53 AM,68.0,61.0,78,30.06,10.0,ENE,5.8,-,N/A,,Overcast,60,2013-10-16 14:53:00
11:46 AM,69.8,60.8,73,30.06,10.0,Variable,3.5,-,N/A,,Mostly Cloudy,0,2013-10-16 15:46:00
11:53 AM,70.0,60.1,71,30.06,10.0,Variable,4.6,-,N/A,,Mostly Cloudy,0,2013-10-16 15:53:00
12:53 PM,73.0,60.1,64,30.04,10.0,Calm,Calm,-,N/A,,Mostly Cloudy,0,2013-10-16 16:53:00
1:04 PM,71.6,59.0,64,30.04,10.0,East,3.5,-,N/A,,Scattered Clouds,80,2013-10-16 17:04:00
1:16 PM,75.2,60.8,61,30.03,10.0,Calm,Calm,-,N/A,,Mostly Cloudy,0,2013-10-16 17:16:00
1:53 PM,73.9,59.0,59,30.01,10.0,Calm,Calm,-,N/A,,Scattered Clouds,0,2013-10-16 17:53:00
2:53 PM,75.9,59.0,56,29.98,10.0,Calm,Calm,-,N/A,,Scattered Clouds,0,2013-10-16 18:53:00
3:53 PM,77.0,57.9,52,29.97,10.0,SW,4.6,-,N/A,,Mostly Cloudy,230,2013-10-16 19:53:00
4:53 PM,77.0,57.9,52,29.96,10.0,ESE,3.5,-,N/A,,Mostly Cloudy,120,2013-10-16 20:53:00
5:53 PM,75.9,59.0,56,29.97,10.0,SSE,3.5,-,N/A,,Scattered Clouds,150,2013-10-16 21:53:00
6:53 PM,71.1,60.1,68,29.97,10.0,Calm,Calm,-,N/A,,Clear,0,2013-10-16 22:53:00
7:53 PM,69.1,61.0,75,29.98,10.0,Calm,Calm,-,N/A,,Overcast,0,2013-10-16 23:53:00
8:53 PM,68.0,61.0,78,29.99,10.0,SSE,3.5,-,N/A,,Mostly Cloudy,150,2013-10-17 00:53:00
9:53 PM,66.9,61.0,81,30.00,10.0,Calm,Calm,-,N/A,,Clear,0,2013-10-17 01:53:00
10:53 PM,66.0,61.0,84,29.99,10.0,Calm,Calm,-,N/A,,Clear,0,2013-10-17 02:53:00
11:53 PM,64.9,61.0,87,30.00,10.0,SSW,3.5,-,N/A,,Clear,210,2013-10-17 03:53:00